^^
Station Historical Data
Daily Summary for July 11, 2018 Units:  English    Metric   Both
« Previous Day
Next Day »
Daily Weekly Monthly Yearly Custom
  High: Low: Average:
Temperature: TemperatureF °F 75.7 °F 87.4 °F
Dew Point: DewpointF °F 66.0 °F 70 °F
Humidity: Humidity% 36% 58%
Wind Speed: WindSpeedMPHmph 0.0mph 2.8mph
Wind Gust: WindSpeedGustMPHmph - -
Wind- - SSE
Pressure: PressureIn in 29.87 in -
Precipitation: 0.00 in    
Historical Graphs
 
 
Tabular Data for July 11, 2018
Time Temperature Dew Point Pressure Wind Wind Speed Wind Gust Humidity Rainfall Rate (Hourly)
TemperatureF °F DewpointF °F PressureIn in Calm     Humidity% HourlyPrecipIn in
00:04 83.7 °F 69.3 °F 29.95 in South 1.2 mph 0.5 mph 62% 0.00 in
00:09 83.5 °F 69.6 °F 29.95 in South 1.2 mph 0.2 mph 63% 0.00 in
00:14 83.3 °F 69.4 °F 29.95 in South 1.2 mph 0.3 mph 63% 0.00 in
00:19 83.2 °F 69.3 °F 29.95 in South 1.2 mph 0.2 mph 63% 0.00 in
00:24 83.1 °F 69.7 °F 29.95 in South 2.3 mph 0.5 mph 64% 0.00 in
00:29 83.0 °F 69.6 °F 29.95 in Calm     64% 0.00 in
00:34 82.9 °F 69.5 °F 29.95 in Calm   0.1 mph 64% 0.00 in
00:39 82.7 °F 69.7 °F 29.95 in South 1.2 mph 0.3 mph 65% 0.00 in
00:44 82.6 °F 69.6 °F 29.95 in South 1.2 mph 0.2 mph 65% 0.00 in
00:49 82.4 °F 69.4 °F 29.94 in Calm     65% 0.00 in
00:54 82.3 °F 69.8 °F 29.94 in Calm     66% 0.00 in
00:59 82.1 °F 69.6 °F 29.94 in Calm     66% 0.00 in
01:04 81.9 °F 69.9 °F 29.94 in Calm     67% 0.00 in
01:09 81.7 °F 70.1 °F 29.94 in South 1.2 mph   68% 0.00 in
01:14 81.6 °F 70.0 °F 29.94 in South 1.2 mph 0.2 mph 68% 0.00 in
01:19 81.5 °F 69.9 °F 29.94 in Calm     68% 0.00 in
01:24 81.4 °F 70.2 °F 29.94 in Calm     69% 0.00 in
01:29 81.2 °F 70.5 °F 29.93 in Calm     70% 0.00 in
01:34 81.1 °F 70.4 °F 29.93 in Calm     70% 0.00 in
01:39 80.9 °F 70.2 °F 29.93 in Calm     70% 0.00 in
01:44 80.8 °F 70.1 °F 29.93 in Calm     70% 0.00 in
01:49 80.7 °F 70.4 °F 29.93 in Calm     71% 0.00 in
01:54 80.5 °F 70.2 °F 29.93 in Calm     71% 0.00 in
01:59 80.4 °F 70.1 °F 29.92 in South 1.2 mph 0.2 mph 71% 0.00 in
02:04 80.3 °F 70.4 °F 29.93 in Calm     72% 0.00 in
02:09 80.2 °F 70.4 °F 29.92 in Calm     72% 0.00 in
02:14 80.0 °F 70.2 °F 29.93 in Calm     72% 0.00 in
02:19 79.7 °F 70.3 °F 29.93 in Calm     73% 0.00 in
02:24 79.6 °F 70.6 °F 29.93 in Calm     74% 0.00 in
02:29 79.4 °F 70.4 °F 29.92 in Calm     74% 0.00 in
02:34 79.2 °F 70.2 °F 29.92 in Calm     74% 0.00 in
02:39 79.1 °F 70.5 °F 29.92 in Calm     75% 0.00 in
02:44 78.9 °F 70.3 °F 29.92 in Calm     75% 0.00 in
02:49 78.7 °F 70.1 °F 29.93 in Calm     75% 0.00 in
02:54 78.6 °F 70.0 °F 29.93 in Calm     75% 0.00 in
02:59 78.5 °F 69.9 °F 29.93 in Calm     75% 0.00 in
03:04 78.4 °F 70.2 °F 29.93 in Calm     76% 0.00 in
03:09 78.3 °F 70.1 °F 29.93 in Calm     76% 0.00 in
03:14 78.1 °F 69.9 °F 29.93 in Calm     76% 0.00 in
03:19 78.0 °F 70.2 °F 29.93 in Calm     77% 0.00 in
03:24 77.8 °F 70.0 °F 29.93 in Calm     77% 0.00 in
03:29 77.8 °F 70.4 °F 29.93 in Calm     78% 0.00 in
03:34 77.7 °F 69.9 °F 29.93 in Calm     77% 0.00 in
03:39 77.8 °F 70.4 °F 29.93 in South 1.2 mph 0.8 mph 78% 0.00 in
03:44 78.0 °F 70.6 °F 29.93 in South 2.3 mph 1.6 mph 78% 0.00 in
03:49 78.1 °F 70.3 °F 29.93 in South 2.3 mph 0.7 mph 77% 0.00 in
03:54 78.1 °F 70.7 °F 29.93 in South 2.3 mph 0.8 mph 78% 0.00 in
03:59 78.2 °F 70.4 °F 29.93 in South 2.3 mph 1.0 mph 77% 0.00 in
04:04 78.6 °F 70.8 °F 29.94 in South 1.2 mph 0.4 mph 77% 0.00 in
04:09 78.8 °F 70.6 °F 29.94 in South 1.2 mph   76% 0.00 in
04:14 78.7 °F 70.5 °F 29.94 in Calm   0.3 mph 76% 0.00 in
04:19 78.6 °F 70.4 °F 29.94 in Calm     76% 0.00 in
04:24 78.5 °F 70.7 °F 29.94 in Calm   0.6 mph 77% 0.00 in
04:29 78.4 °F 70.6 °F 29.94 in Calm     77% 0.00 in
04:34 78.2 °F 70.8 °F 29.94 in Calm     78% 0.00 in
04:39 78.0 °F 70.6 °F 29.94 in Calm     78% 0.00 in
04:44 77.8 °F 70.8 °F 29.94 in Calm     79% 0.00 in
04:49 77.5 °F 70.8 °F 29.94 in Calm     80% 0.00 in
04:54 77.2 °F 70.5 °F 29.94 in Calm     80% 0.00 in
04:59 77.0 °F 70.4 °F 29.94 in Calm     80% 0.00 in
05:04 76.9 °F 70.6 °F 29.95 in Calm     81% 0.00 in
05:09 76.9 °F 70.6 °F 29.95 in Calm     81% 0.00 in
05:14 77.0 °F 70.7 °F 29.95 in Calm     81% 0.00 in
05:19 77.1 °F 70.5 °F 29.95 in Calm     80% 0.00 in
05:24 77.0 °F 70.4 °F 29.95 in Calm     80% 0.00 in
05:29 76.9 °F 70.6 °F 29.95 in Calm     81% 0.00 in
05:34 76.8 °F 70.5 °F 29.95 in Calm     81% 0.00 in
05:39 76.6 °F 70.7 °F 29.95 in Calm     82% 0.00 in
05:44 76.4 °F 70.5 °F 29.95 in Calm     82% 0.00 in
05:49 76.2 °F 70.7 °F 29.96 in Calm     83% 0.00 in
05:54 76.1 °F 70.6 °F 29.96 in Calm     83% 0.00 in
05:59 76.2 °F 70.7 °F 29.96 in Calm     83% 0.00 in
06:04 76.1 °F 70.6 °F 29.96 in Calm     83% 0.00 in
06:09 76.0 °F 70.5 °F 29.96 in Calm     83% 0.00 in
06:14 75.8 °F 70.6 °F 29.96 in Calm     84% 0.00 in
06:19 75.8 °F 70.6 °F 29.96 in Calm     84% 0.00 in
06:24 75.7 °F 70.5 °F 29.97 in Calm     84% 0.00 in
06:29 75.7 °F 70.5 °F 29.96 in Calm     84% 0.00 in
06:34 75.9 °F 70.7 °F 29.97 in Calm     84% 0.00 in
06:39 76.1 °F 70.9 °F 29.97 in Calm     84% 0.00 in
06:44 76.5 °F 70.9 °F 29.97 in Calm     83% 0.00 in
06:49 76.7 °F 71.1 °F 29.97 in Calm     83% 0.00 in
06:54 76.7 °F 71.1 °F 29.97 in Calm     83% 0.00 in
06:59 76.9 °F 71.3 °F 29.97 in Calm     83% 0.00 in
07:04 77.1 °F 71.2 °F 29.97 in Calm     82% 0.00 in
07:09 77.4 °F 71.8 °F 29.97 in Calm     83% 0.00 in
07:14 77.5 °F 71.9 °F 29.97 in Calm     83% 0.00 in
07:19 77.6 °F 72.0 °F 29.97 in Calm     83% 0.00 in
07:24 77.6 °F 72.0 °F 29.97 in Calm     83% 0.00 in
07:29 77.8 °F 72.2 °F 29.97 in Calm     83% 0.00 in
07:34 78.1 °F 72.2 °F 29.98 in Calm     82% 0.00 in
07:39 78.5 °F 72.5 °F 29.97 in Calm     82% 0.00 in
07:44 78.9 °F 72.6 °F 29.97 in Calm     81% 0.00 in
07:49 79.4 °F 72.7 °F 29.97 in Calm     80% 0.00 in
07:54 79.8 °F 72.7 °F 29.98 in Calm     79% 0.00 in
07:59 80.0 °F 72.9 °F 29.98 in Calm     79% 0.00 in
08:04 80.6 °F 72.3 °F 29.98 in SE 3.5 mph 1.6 mph 76% 0.00 in
08:09 81.0 °F 72.3 °F 29.98 in SE 3.5 mph 1.6 mph 75% 0.00 in
08:14 81.4 °F 73.1 °F 29.97 in SE 1.0 mph   76% 0.00 in
08:19 81.7 °F 72.6 °F 29.97 in Calm     74% 0.00 in
08:24 82.0 °F 72.9 °F 29.98 in SE 2.3 mph 0.8 mph 74% 0.00 in
08:29 82.4 °F 72.9 °F 29.98 in SE 3.5 mph 1.2 mph 73% 0.00 in
08:34 82.7 °F 72.7 °F 29.98 in SE 3.0 mph 2.1 mph 72% 0.00 in
08:39 83.0 °F 73.0 °F 29.98 in Calm     72% 0.00 in
08:44 83.3 °F 73.3 °F 29.98 in SE 3.5 mph 0.4 mph 72% 0.00 in
08:49 83.6 °F 73.2 °F 29.98 in SE 3.5 mph 2.0 mph 71% 0.00 in
08:54 83.9 °F 73.5 °F 29.98 in Calm     71% 0.00 in
08:59 84.5 °F 73.6 °F 29.98 in SE 3.5 mph 0.8 mph 70% 0.00 in
09:04 84.9 °F 73.6 °F 29.97 in SE 1.2 mph 0.8 mph 69% 0.00 in
09:09 85.3 °F 73.5 °F 29.97 in SE 1.2 mph 0.7 mph 68% 0.00 in
09:14 85.8 °F 73.6 °F 29.97 in SE 1.2 mph 0.5 mph 67% 0.00 in
09:19 86.2 °F 73.0 °F 29.97 in South 3.5 mph 3.0 mph 65% 0.00 in
09:24 86.4 °F 73.7 °F 29.97 in SSE 2.3 mph 0.4 mph 66% 0.00 in
09:29 86.6 °F 73.0 °F 29.97 in South 3.5 mph 1.6 mph 64% 0.00 in
09:34 86.9 °F 72.8 °F 29.97 in ESE 3.5 mph 2.3 mph 63% 0.00 in
09:39 87.2 °F 73.1 °F 29.97 in South 2.3 mph 0.4 mph 63% 0.00 in
09:44 87.7 °F 72.6 °F 29.97 in ESE 3.5 mph 2.4 mph 61% 0.00 in
09:49 88.1 °F 72.5 °F 29.97 in SE 3.5 mph 2.9 mph 60% 0.00 in
09:54 88.5 °F 73.3 °F 29.97 in South 4.0 mph 1.0 mph 61% 0.00 in
09:59 88.8 °F 72.6 °F 29.96 in South 3.5 mph 1.7 mph 59% 0.00 in
10:04 89.2 °F 72.5 °F 29.96 in South 3.5 mph 3.6 mph 58% 0.00 in
10:09 89.2 °F 73.0 °F 29.96 in South 5.8 mph 0.8 mph 59% 0.00 in
10:14 89.8 °F 73.6 °F 29.96 in SE 3.5 mph 1.9 mph 59% 0.00 in
10:19 90.4 °F 73.1 °F 29.96 in SE 3.5 mph 2.1 mph 57% 0.00 in
10:24 90.5 °F 72.7 °F 29.96 in SSW 3.5 mph 1.9 mph 56% 0.00 in
10:29 90.8 °F 72.4 °F 29.95 in ESE 3.5 mph 1.6 mph 55% 0.00 in
10:34 91.1 °F 72.1 °F 29.95 in SE 5.8 mph 1.8 mph 54% 0.00 in
10:39 91.3 °F 72.9 °F 29.95 in SSW 3.5 mph 1.6 mph 55% 0.00 in
10:44 91.4 °F 71.9 °F 29.95 in SSW 4.6 mph 1.1 mph 53% 0.00 in
10:49 91.4 °F 71.9 °F 29.95 in SSW 3.5 mph 1.3 mph 53% 0.00 in
10:53 91.5 °F 71.4 °F 29.95 in SE 11.5 mph 4.1 mph 52% 0.00 in
10:59 91.8 °F 72.2 °F 29.95 in ESE 3.5 mph 1.2 mph 53% 0.00 in
11:04 91.8 °F 71.7 °F 29.95 in ESE 2.3 mph 2.3 mph 52% 0.00 in
11:09 92.0 °F 70.7 °F 29.95 in SSE 6.9 mph 4.2 mph 50% 0.00 in
11:14 92.4 °F 72.2 °F 29.95 in NNE 3.5 mph 1.3 mph 52% 0.00 in
11:19 92.6 °F 71.8 °F 29.95 in ESE 6.9 mph 2.0 mph 51% 0.00 in
11:24 93.0 °F 72.2 °F 29.95 in SSE 2.3 mph 1.0 mph 51% 0.00 in
11:29 93.3 °F 71.9 °F 29.95 in East 3.5 mph 2.7 mph 50% 0.00 in
11:34 93.5 °F 72.1 °F 29.95 in SSE 2.3 mph 1.0 mph 50% 0.00 in
11:39 93.8 °F 71.7 °F 29.95 in SE 3.5 mph 2.7 mph 49% 0.00 in
11:44 93.9 °F 71.8 °F 29.95 in South 11.0 mph 2.5 mph 49% 0.00 in
11:49 93.0 °F 71.0 °F 29.95 in South 10.4 mph 1.6 mph 49% 0.00 in
11:54 92.9 °F 70.3 °F 29.95 in South 8.1 mph 4.0 mph 48% 0.00 in
11:59 93.5 °F 71.5 °F 29.94 in South 2.3 mph 1.3 mph 49% 0.00 in
12:04 94.4 °F 71.7 °F 29.94 in SSE 3.5 mph 1.7 mph 48% 0.00 in
12:09 94.5 °F 70.5 °F 29.94 in SE 3.5 mph 1.4 mph 46% 0.00 in
12:14 94.3 °F 71.0 °F 29.94 in SE 8.1 mph 4.9 mph 47% 0.00 in
12:19 94.3 °F 71.0 °F 29.95 in SE 4.6 mph 2.4 mph 47% 0.00 in
12:24 94.6 °F 70.0 °F 29.94 in South 8.1 mph 4.0 mph 45% 0.00 in
12:29 94.5 °F 70.5 °F 29.94 in ENE 3.5 mph 0.9 mph 46% 0.00 in
12:34 94.6 °F 71.9 °F 29.94 in SE 3.5 mph 1.1 mph 48% 0.00 in
12:39 95.1 °F 71.1 °F 29.94 in SE 2.3 mph 1.2 mph 46% 0.00 in
12:44 94.2 °F 70.9 °F 29.94 in SE 8.1 mph 1.2 mph 47% 0.00 in
12:49 94.1 °F 70.2 °F 29.94 in SE 3.5 mph 1.3 mph 46% 0.00 in
12:54 94.7 °F 70.1 °F 29.95 in SE 4.6 mph 4.2 mph 45% 0.00 in
12:59 95.1 °F 71.1 °F 29.94 in SE 2.3 mph 1.4 mph 46% 0.00 in
13:04 95.9 °F 70.5 °F 29.94 in ESE 2.3 mph 3.3 mph 44% 0.00 in
13:09 96.2 °F 69.4 °F 29.94 in SSE 3.5 mph 0.7 mph 42% 0.00 in
13:14 96.6 °F 71.8 °F 29.94 in WSW 5.0 mph 2.0 mph 45% 0.00 in
13:19 96.6 °F 70.4 °F 29.94 in South 4.6 mph 1.6 mph 43% 0.00 in
13:24 95.7 °F 70.3 °F 29.94 in SE 4.6 mph 1.1 mph 44% 0.00 in
13:29 95.8 °F 70.4 °F 29.94 in South 3.5 mph 2.6 mph 44% 0.00 in
13:34 95.5 °F 70.8 °F 29.93 in SE 11.5 mph 1.5 mph 45% 0.00 in
13:39 95.5 °F 70.1 °F 29.93 in ESE 2.3 mph 0.2 mph 44% 0.00 in
13:44 95.3 °F 71.2 °F 29.93 in East 6.9 mph 1.4 mph 46% 0.00 in
13:49 95.3 °F 69.9 °F 29.93 in ENE 5.8 mph 1.8 mph 44% 0.00 in
13:54 95.6 °F 70.2 °F 29.93 in SE 4.6 mph 5.5 mph 44% 0.00 in
13:59 95.8 °F 70.4 °F 29.93 in ESE 5.8 mph 1.1 mph 44% 0.00 in
14:04 96.2 °F 70.1 °F 29.93 in SE 3.5 mph 1.3 mph 43% 0.00 in
14:09 96.8 °F 71.3 °F 29.93 in South 1.2 mph 0.1 mph 44% 0.00 in
14:14 97.2 °F 70.3 °F 29.93 in ESE 6.9 mph 3.0 mph 42% 0.00 in
14:19 96.9 °F 70.0 °F 29.93 in SE 4.6 mph 2.8 mph 42% 0.00 in
14:24 96.6 °F 70.4 °F 29.92 in SSW 5.8 mph 4.2 mph 43% 0.00 in
14:29 95.8 °F 70.4 °F 29.92 in SE 4.6 mph 2.7 mph 44% 0.00 in
14:34 95.7 °F 68.9 °F 29.92 in South 6.0 mph 5.5 mph 42% 0.00 in
14:39 96.0 °F 70.6 °F 29.92 in SE 3.5 mph 1.9 mph 44% 0.00 in
14:44 96.2 °F 70.7 °F 29.92 in SSE 7.0 mph 3.6 mph 44% 0.00 in
14:49 96.4 °F 69.6 °F 29.92 in ESE 3.5 mph 2.3 mph 42% 0.00 in
14:54 96.7 °F 69.8 °F 29.92 in SE 3.5 mph 3.4 mph 42% 0.00 in
14:59 96.7 °F 69.1 °F 29.92 in SE 6.9 mph 3.9 mph 41% 0.00 in
15:04 96.6 °F 69.7 °F 29.91 in South 4.0 mph 1.4 mph 42% 0.00 in
15:09 97.0 °F 69.4 °F 29.91 in SSE 3.5 mph 1.6 mph 41% 0.00 in
15:14 96.8 °F 69.9 °F 29.91 in SE 3.5 mph 1.6 mph 42% 0.00 in
15:19 96.9 °F 70.0 °F 29.91 in ESE 1.2 mph 1.3 mph 42% 0.00 in
15:24 96.6 °F 70.4 °F 29.91 in SE 10.4 mph 2.2 mph 43% 0.00 in
15:29 96.0 °F 70.6 °F 29.91 in SE 3.5 mph 2.4 mph 44% 0.00 in
15:34 95.9 °F 70.5 °F 29.91 in SSE 4.6 mph 2.3 mph 44% 0.00 in
15:39 96.2 °F 69.4 °F 29.91 in ENE 2.3 mph 1.0 mph 42% 0.00 in
15:44 96.7 °F 69.8 °F 29.90 in ESE 10.4 mph 4.7 mph 42% 0.00 in
15:49 96.2 °F 69.4 °F 29.90 in SSE 6.0 mph 3.1 mph 42% 0.00 in
15:54 96.3 °F 70.8 °F 29.90 in South 5.8 mph 0.7 mph 44% 0.00 in
15:59 97.2 °F 70.3 °F 29.90 in SE 8.1 mph 3.1 mph 42% 0.00 in
16:04 97.7 °F 68.6 °F 29.90 in South 6.0 mph 4.5 mph 39% 0.00 in
16:08 97.3 °F 68.9 °F 29.90 in South 5.8 mph 0.7 mph 40% 0.00 in
16:14 97.5 °F 66.9 °F 29.90 in SSW 10.4 mph 4.3 mph 37% 0.00 in
16:19 97.6 °F 66.9 °F 29.90 in SE 3.5 mph 1.6 mph 37% 0.00 in
16:24 97.4 °F 66.0 °F 29.90 in SSW 6.9 mph 5.5 mph 36% 0.00 in
16:29 96.9 °F 67.1 °F 29.90 in East 11.5 mph 6.7 mph 38% 0.00 in
16:34 97.0 °F 68.7 °F 29.89 in ENE 6.9 mph 0.7 mph 40% 0.00 in
16:39 97.5 °F 69.1 °F 29.89 in SE 6.9 mph 4.2 mph 40% 0.00 in
16:44 97.2 °F 70.3 °F 29.89 in SSE 4.6 mph 1.8 mph 42% 0.00 in
16:49 96.9 °F 69.3 °F 29.89 in SW 9.2 mph 1.7 mph 41% 0.00 in
16:54 96.2 °F 69.4 °F 29.89 in SSW 3.0 mph 1.2 mph 42% 0.00 in
16:59 95.2 °F 68.5 °F 29.89 in South 3.5 mph 2.0 mph 42% 0.00 in
17:04 95.0 °F 68.3 °F 29.89 in SE 2.3 mph 0.3 mph 42% 0.00 in
17:09 95.7 °F 68.9 °F 29.88 in SE 8.1 mph 3.9 mph 42% 0.00 in
17:14 95.9 °F 68.4 °F 29.88 in SW 8.1 mph 1.8 mph 41% 0.00 in
17:19 96.2 °F 68.0 °F 29.88 in SSW 8.0 mph 4.9 mph 40% 0.00 in
17:24 96.2 °F 68.0 °F 29.88 in South 4.6 mph 2.1 mph 40% 0.00 in
17:29 96.4 °F 69.6 °F 29.88 in SE 9.2 mph 2.5 mph 42% 0.00 in
17:34 96.1 °F 68.6 °F 29.88 in South 10.4 mph 6.4 mph 41% 0.00 in
17:39 96.0 °F 69.2 °F 29.88 in SW 6.9 mph 3.7 mph 42% 0.00 in
17:44 96.2 °F 68.7 °F 29.88 in SE 3.5 mph 2.9 mph 41% 0.00 in
17:49 96.3 °F 68.8 °F 29.88 in SE 8.1 mph 2.6 mph 41% 0.00 in
17:54 96.4 °F 68.1 °F 29.88 in South 8.1 mph 4.3 mph 40% 0.00 in
17:59 96.1 °F 68.6 °F 29.88 in ESE 3.5 mph 2.2 mph 41% 0.00 in
18:04 96.0 °F 67.8 °F 29.88 in South 6.9 mph 4.4 mph 40% 0.00 in
18:09 95.8 °F 67.6 °F 29.88 in ESE 9.2 mph 5.5 mph 40% 0.00 in
18:14 95.8 °F 68.3 °F 29.88 in SSW 3.5 mph 3.6 mph 41% 0.00 in
18:19 95.5 °F 69.4 °F 29.88 in SE 2.3 mph 1.2 mph 43% 0.00 in
18:24 95.5 °F 68.8 °F 29.87 in East 4.6 mph 2.1 mph 42% 0.00 in
18:29 95.5 °F 68.8 °F 29.87 in ESE 4.0 mph 5.0 mph 42% 0.00 in
18:34 95.2 °F 68.5 °F 29.87 in SSE 6.9 mph 2.0 mph 42% 0.00 in
18:39 95.1 °F 68.4 °F 29.87 in ESE 3.5 mph 1.0 mph 42% 0.00 in
18:44 95.0 °F 68.3 °F 29.87 in SE 4.0 mph 2.6 mph 42% 0.00 in
18:49 94.7 °F 68.7 °F 29.87 in SE 9.2 mph 2.1 mph 43% 0.00 in
18:54 94.5 °F 68.5 °F 29.87 in SE 6.9 mph 3.3 mph 43% 0.00 in
18:59 94.3 °F 69.0 °F 29.87 in SSE 3.5 mph 2.2 mph 44% 0.00 in
19:04 94.3 °F 68.4 °F 29.87 in ESE 3.5 mph 1.4 mph 43% 0.00 in
19:09 94.1 °F 68.2 °F 29.87 in SSE 3.5 mph 2.3 mph 43% 0.00 in
19:14 94.0 °F 68.1 °F 29.87 in South 6.9 mph 3.7 mph 43% 0.00 in
19:19 93.8 °F 67.9 °F 29.87 in SSW 8.1 mph 4.9 mph 43% 0.00 in
19:24 93.5 °F 67.6 °F 29.87 in SE 2.3 mph 1.3 mph 43% 0.00 in
19:29 93.4 °F 67.6 °F 29.87 in SE 2.3 mph 0.6 mph 43% 0.00 in
19:34 93.3 °F 66.8 °F 29.87 in ESE 2.3 mph 0.5 mph 42% 0.00 in
19:39 93.3 °F 67.5 °F 29.87 in SE 3.5 mph 0.9 mph 43% 0.00 in
19:44 93.2 °F 68.0 °F 29.87 in ESE 2.3 mph 1.2 mph 44% 0.00 in
19:49 93.1 °F 68.0 °F 29.87 in SSW 5.8 mph 4.5 mph 44% 0.00 in
19:54 93.1 °F 68.6 °F 29.87 in SE 3.5 mph 1.8 mph 45% 0.00 in
19:59 92.9 °F 68.4 °F 29.87 in SSE 5.8 mph 2.3 mph 45% 0.00 in
20:04 92.8 °F 68.3 °F 29.88 in SE 2.3 mph 1.1 mph 45% 0.00 in
20:09 92.6 °F 67.5 °F 29.88 in East 6.9 mph 0.8 mph 44% 0.00 in
20:14 92.3 °F 67.2 °F 29.88 in SSW 4.6 mph 2.7 mph 44% 0.00 in
20:19 92.2 °F 67.8 °F 29.88 in South 5.8 mph 1.3 mph 45% 0.00 in
20:24 91.9 °F 68.2 °F 29.88 in East 3.5 mph 1.1 mph 46% 0.00 in
20:29 91.7 °F 68.0 °F 29.88 in SSE 6.9 mph 4.1 mph 46% 0.00 in
20:34 91.5 °F 68.4 °F 29.88 in Calm     47% 0.00 in
20:39 91.3 °F 68.2 °F 29.88 in SSE 1.2 mph 0.7 mph 47% 0.00 in
20:44 91.0 °F 68.0 °F 29.88 in SSE 2.3 mph 0.7 mph 47% 0.00 in
20:49 90.7 °F 68.3 °F 29.88 in SSE 3.5 mph 1.9 mph 48% 0.00 in
20:54 90.5 °F 68.1 °F 29.88 in SE 5.8 mph 2.0 mph 48% 0.00 in
20:58 90.4 °F 68.6 °F 29.88 in SSE 2.3 mph 0.7 mph 49% 0.00 in
21:04 90.3 °F 68.5 °F 29.89 in SE 2.0 mph 1.0 mph 49% 0.00 in
21:09 90.1 °F 69.0 °F 29.89 in SE 2.3 mph 0.2 mph 50% 0.00 in
21:14 90.0 °F 68.9 °F 29.89 in SE 1.2 mph 0.5 mph 50% 0.00 in
21:19 89.9 °F 68.8 °F 29.90 in SE 1.2 mph 0.4 mph 50% 0.00 in
21:24 89.7 °F 69.2 °F 29.90 in SE 1.2 mph 0.4 mph 51% 0.00 in
21:29 89.5 °F 69.0 °F 29.90 in SE 3.5 mph 0.3 mph 51% 0.00 in
21:34 89.4 °F 68.9 °F 29.90 in SE 2.3 mph   51% 0.00 in
21:39 89.2 °F 69.3 °F 29.90 in Calm     52% 0.00 in
21:44 89.0 °F 69.1 °F 29.90 in Calm     52% 0.00 in
21:49 88.8 °F 69.5 °F 29.91 in Calm     53% 0.00 in
21:54 88.6 °F 69.8 °F 29.91 in Calm     54% 0.00 in
21:59 88.4 °F 69.6 °F 29.91 in Calm     54% 0.00 in
22:04 88.3 °F 69.5 °F 29.91 in SE 2.0 mph 0.2 mph 54% 0.00 in
22:09 88.2 °F 69.5 °F 29.92 in SE 3.5 mph 1.5 mph 54% 0.00 in
22:14 88.1 °F 69.9 °F 29.92 in Calm     55% 0.00 in
22:19 87.9 °F 69.7 °F 29.92 in SE 2.3 mph   55% 0.00 in
22:24 87.7 °F 69.5 °F 29.92 in Calm     55% 0.00 in
22:29 87.6 °F 69.4 °F 29.92 in Calm     55% 0.00 in
22:34 87.4 °F 69.8 °F 29.93 in Calm   0.5 mph 56% 0.00 in
22:39 87.3 °F 69.7 °F 29.93 in SSE 1.2 mph 0.4 mph 56% 0.00 in
22:44 87.2 °F 69.6 °F 29.93 in SE 2.0 mph 0.9 mph 56% 0.00 in
22:49 87.1 °F 69.5 °F 29.93 in SE 1.2 mph 0.7 mph 56% 0.00 in
22:54 87.0 °F 69.4 °F 29.93 in SE 3.5 mph 2.3 mph 56% 0.00 in
22:59 87.0 °F 69.9 °F 29.93 in SE 2.3 mph 1.2 mph 57% 0.00 in
23:04 86.9 °F 69.8 °F 29.93 in SE 3.5 mph 1.2 mph 57% 0.00 in
23:09 86.7 °F 69.6 °F 29.93 in SE 1.2 mph 0.9 mph 57% 0.00 in
23:14 86.6 °F 69.6 °F 29.93 in ESE 2.3 mph 1.8 mph 57% 0.00 in
23:18 86.6 °F 70.1 °F 29.93 in SE 3.5 mph 0.8 mph 58% 0.00 in
23:24 86.6 °F 70.1 °F 29.93 in Calm     58% 0.00 in
23:29 86.4 °F 69.9 °F 29.93 in SE 2.3 mph 0.9 mph 58% 0.00 in
23:34 86.4 °F 69.9 °F 29.93 in SE 1.2 mph 1.0 mph 58% 0.00 in
23:39 86.4 °F 69.9 °F 29.93 in SE 6.9 mph 0.3 mph 58% 0.00 in
23:44 86.3 °F 69.8 °F 29.94 in SE 2.3 mph 0.8 mph 58% 0.00 in
23:49 86.2 °F 69.7 °F 29.94 in SSE 3.5 mph 0.8 mph 58% 0.00 in
23:54 86.1 °F 70.1 °F 29.94 in SE 1.0 mph   59% 0.00 in
23:59 86.0 °F 70.0 °F 29.94 in SSE 1.2 mph 0.1 mph 59% 0.00 in
Live Lenexa Weather
Compliments of Weather Underground - 1.75 mb